DLH401 KJFK-EDDF

Flight info

Callsign DLH401
Flight time N/A
Altitude 39000
Route MERIT DCT HFD DCT PUT DCT EBONY N633A RIKAL/M079F400 NATV GISTI/N0460F410 DCT EVRIN DCT JETZI DCT AMFUL DCT CAWZE DCT SIRIC P2 DVR UL9 KONAN UL607 SPI T180 NIVNU/N0348F230 T847 IMCOM IMCOM1B
Aircraft A343/H-SDE2E3FGHIJ3J5M1P2RWXYZ/LB1D1

Departure

Time N/A
Airport John F. Kennedy International Airport (KJFK)

Arrival

Time 2026-04-17 05:02
Airport Frankfurt Main Airport (EDDF)
Time Latitude Longitude Altitude Speed Heading
2026-04-17 04:16 51.14417 1.74323 40181 ft 496 kts 96°
2026-04-17 04:17 51.14143 1.79794 40178 ft 496 kts 96°
2026-04-17 04:17 51.13583 1.90704 40174 ft 496 kts 96°
2026-04-17 04:18 51.13010 2.01641 40186 ft 496 kts 96°
2026-04-17 04:18 51.12429 2.12588 40185 ft 496 kts 96°
2026-04-17 04:19 51.11836 2.23542 40188 ft 496 kts 96°
2026-04-17 04:19 51.11234 2.34476 40188 ft 496 kts 96°
2026-04-17 04:20 51.10623 2.45409 40189 ft 496 kts 96°
2026-04-17 04:20 51.10001 2.56342 40195 ft 496 kts 96°
2026-04-17 04:21 51.09060 2.67127 40205 ft 494 kts 107°
2026-04-17 04:21 51.07276 2.77656 40200 ft 493 kts 108°
2026-04-17 04:22 51.05363 2.88123 40206 ft 493 kts 108°
2026-04-17 04:22 51.03430 2.98578 40207 ft 493 kts 108°
2026-04-17 04:23 51.01502 3.09032 40207 ft 493 kts 108°
2026-04-17 04:23 50.99571 3.19482 40204 ft 493 kts 108°
2026-04-17 04:24 50.97631 3.29923 40200 ft 493 kts 108°
2026-04-17 04:24 50.95676 3.40391 40198 ft 494 kts 108°
2026-04-17 04:25 50.93717 3.50815 40203 ft 494 kts 108°
2026-04-17 04:25 50.91751 3.61220 40203 ft 494 kts 108°
2026-04-17 04:26 50.89772 3.71631 40208 ft 493 kts 109°
2026-04-17 04:26 50.87761 3.82018 40210 ft 493 kts 109°
2026-04-17 04:27 50.85738 3.92398 40213 ft 493 kts 109°
2026-04-17 04:27 50.83712 4.02766 40219 ft 493 kts 109°
2026-04-17 04:28 50.81684 4.13103 40228 ft 493 kts 109°
2026-04-17 04:28 50.79642 4.23454 40224 ft 493 kts 109°
2026-04-17 04:29 50.77590 4.33798 40246 ft 493 kts 109°
2026-04-17 04:29 50.75531 4.44119 40229 ft 493 kts 109°
2026-04-17 04:30 50.73464 4.54428 40230 ft 493 kts 109°
2026-04-17 04:30 50.71392 4.64753 40242 ft 493 kts 109°
2026-04-17 04:31 50.69403 4.75024 40231 ft 492 kts 108°
2026-04-17 04:31 50.67395 4.85430 40218 ft 492 kts 108°
2026-04-17 04:32 50.65396 4.95658 40235 ft 492 kts 109°
2026-04-17 04:32 50.63303 5.05877 40224 ft 491 kts 110°
2026-04-17 04:33 50.61472 5.14663 40229 ft 491 kts 109°
2026-04-17 04:33 50.60405 5.19782 40080 ft 491 kts 109°
2026-04-17 04:33 50.59348 5.24861 39852 ft 486 kts 109°
2026-04-17 04:33 50.58298 5.29909 39607 ft 483 kts 109°
2026-04-17 04:34 50.56203 5.39948 39167 ft 484 kts 110°
2026-04-17 04:34 50.55153 5.44963 38861 ft 481 kts 110°
2026-04-17 04:34 50.54106 5.49951 38347 ft 481 kts 110°
2026-04-17 04:35 50.53056 5.54936 37850 ft 480 kts 110°
2026-04-17 04:35 50.52010 5.59893 37353 ft 479 kts 109°
2026-04-17 04:35 50.50965 5.64862 36839 ft 479 kts 109°
2026-04-17 04:35 50.49986 5.69875 36348 ft 479 kts 107°
2026-04-17 04:36 50.49062 5.74886 35823 ft 479 kts 107°
2026-04-17 04:36 50.48151 5.79917 35257 ft 481 kts 106°
2026-04-17 04:36 50.47227 5.84998 34611 ft 484 kts 107°
2026-04-17 04:36 50.46607 5.88368 34171 ft 486 kts 107°
2026-04-17 04:37 50.45335 5.95204 33170 ft 489 kts 107°
2026-04-17 04:37 50.44385 6.00252 32470 ft 489 kts 107°
2026-04-17 04:37 50.43418 6.05352 31747 ft 490 kts 107°
2026-04-17 04:37 50.42441 6.10489 31017 ft 491 kts 106°
2026-04-17 04:38 50.41464 6.15604 30529 ft 486 kts 106°
2026-04-17 04:38 50.40497 6.20652 29979 ft 482 kts 106°
2026-04-17 04:38 50.39847 6.24039 29605 ft 479 kts 107°
2026-04-17 04:38 50.38585 6.30599 28914 ft 471 kts 107°
2026-04-17 04:39 50.37947 6.33910 28556 ft 468 kts 107°
2026-04-17 04:39 50.37026 6.38711 28059 ft 463 kts 106°
2026-04-17 04:39 50.36388 6.43636 27569 ft 458 kts 97°
2026-04-17 04:39 50.35992 6.48602 27047 ft 453 kts 96°
2026-04-17 04:40 50.35677 6.53429 26595 ft 449 kts 94°
2026-04-17 04:40 50.35434 6.58247 26337 ft 442 kts 93°
2026-04-17 04:40 50.35205 6.63056 26083 ft 443 kts 93°
2026-04-17 04:40 50.34969 6.67857 25832 ft 443 kts 94°
2026-04-17 04:41 50.34727 6.72662 25586 ft 441 kts 94°
2026-04-17 04:41 50.34481 6.77437 25340 ft 440 kts 94°
2026-04-17 04:41 50.34233 6.82193 25103 ft 438 kts 94°
2026-04-17 04:41 50.33983 6.86943 24863 ft 437 kts 94°
2026-04-17 04:42 50.33731 6.91677 24630 ft 435 kts 94°
2026-04-17 04:42 50.33478 6.96380 24399 ft 434 kts 94°
2026-04-17 04:42 50.33224 7.01090 24163 ft 433 kts 94°
2026-04-17 04:42 50.32968 7.05773 23934 ft 432 kts 94°
2026-04-17 04:43 50.32711 7.10461 23670 ft 431 kts 94°
2026-04-17 04:43 50.32452 7.15131 23252 ft 431 kts 94°
2026-04-17 04:43 50.32194 7.19774 22820 ft 427 kts 94°
2026-04-17 04:43 50.31934 7.24394 22381 ft 424 kts 94°
2026-04-17 04:44 50.31675 7.28973 21974 ft 420 kts 94°
2026-04-17 04:44 50.31416 7.33509 21553 ft 418 kts 94°
2026-04-17 04:44 50.31158 7.38008 21158 ft 415 kts 94°
2026-04-17 04:44 50.30900 7.42491 20710 ft 411 kts 94°
2026-04-17 04:45 50.30641 7.46934 20256 ft 408 kts 94°
2026-04-17 04:45 50.30384 7.51331 19834 ft 404 kts 94°
2026-04-17 04:45 50.30127 7.55683 19400 ft 401 kts 94°
2026-04-17 04:45 50.29871 7.60012 18976 ft 398 kts 94°
2026-04-17 04:46 50.29616 7.64292 18561 ft 395 kts 94°
2026-04-17 04:46 50.29360 7.68558 18083 ft 392 kts 94°
2026-04-17 04:46 50.29106 7.72774 17615 ft 389 kts 94°
2026-04-17 04:46 50.28851 7.76972 17103 ft 386 kts 94°
2026-04-17 04:47 50.28599 7.81087 16616 ft 384 kts 94°
2026-04-17 04:47 50.28341 7.85284 16103 ft 382 kts 94°
2026-04-17 04:47 50.28087 7.89396 15605 ft 380 kts 94°
2026-04-17 04:47 50.27835 7.93445 15124 ft 378 kts 94°
2026-04-17 04:48 50.27577 7.97571 14638 ft 376 kts 94°
2026-04-17 04:48 50.27325 8.01581 14169 ft 374 kts 94°
2026-04-17 04:48 50.27067 8.05664 13636 ft 372 kts 94°
2026-04-17 04:48 50.26815 8.09627 13129 ft 370 kts 95°
2026-04-17 04:49 50.26559 8.13613 12597 ft 368 kts 95°
2026-04-17 04:49 50.26304 8.17588 12087 ft 366 kts 95°
2026-04-17 04:49 50.26050 8.21517 11583 ft 363 kts 95°
2026-04-17 04:49 50.25796 8.25419 11093 ft 360 kts 95°
2026-04-17 04:50 50.25542 8.29298 10611 ft 357 kts 95°
2026-04-17 04:50 50.25290 8.33134 10157 ft 350 kts 96°
2026-04-17 04:50 50.25048 8.36799 9791 ft 325 kts 96°
2026-04-17 04:50 50.24824 8.40163 9433 ft 300 kts 96°
2026-04-17 04:51 50.24609 8.43396 9086 ft 294 kts 96°
2026-04-17 04:51 50.24398 8.46533 8819 ft 295 kts 96°
2026-04-17 04:51 50.24183 8.49732 8587 ft 295 kts 96°
2026-04-17 04:51 50.23970 8.52887 8339 ft 291 kts 96°
2026-04-17 04:52 50.23761 8.55981 8068 ft 279 kts 96°
2026-04-17 04:52 50.23562 8.58902 7747 ft 262 kts 96°
2026-04-17 04:52 50.23374 8.61665 7447 ft 253 kts 97°
2026-04-17 04:52 50.23186 8.64400 7153 ft 254 kts 97°
2026-04-17 04:53 50.22997 8.67143 6849 ft 255 kts 97°
2026-04-17 04:53 50.22807 8.69908 6527 ft 257 kts 97°
2026-04-17 04:53 50.22614 8.72689 6196 ft 258 kts 97°
2026-04-17 04:55 50.18208 8.87889 5014 ft 220 kts 173°
2026-04-17 04:55 50.16681 8.88098 5016 ft 220 kts 177°
2026-04-17 04:55 50.15155 8.88234 5026 ft 220 kts 178°
2026-04-17 04:56 50.13631 8.88154 5053 ft 219 kts 194°
2026-04-17 04:56 50.12306 8.87048 4949 ft 218 kts 226°
2026-04-17 04:56 50.11617 8.84956 4582 ft 223 kts 258°
2026-04-17 04:56 50.11392 8.82537 4283 ft 223 kts 262°
2026-04-17 04:57 50.11033 8.80248 4014 ft 214 kts 249°
2026-04-17 04:57 50.10474 8.78185 3784 ft 198 kts 244°
2026-04-17 04:57 50.09964 8.76267 3491 ft 187 kts 250°
2026-04-17 04:57 50.09598 8.74371 3200 ft 178 kts 253°
2026-04-17 04:58 50.09230 8.72605 2987 ft 166 kts 248°
2026-04-17 04:58 50.08812 8.70977 2743 ft 158 kts 245°
2026-04-17 04:58 50.08392 8.69448 2533 ft 148 kts 248°
2026-04-17 04:58 50.08068 8.68003 2344 ft 137 kts 250°
2026-04-17 04:59 50.07762 8.66649 2133 ft 130 kts 248°
2026-04-17 04:59 50.07431 8.65332 1981 ft 130 kts 246°
2026-04-17 04:59 50.07105 8.64001 1871 ft 134 kts 249°
2026-04-17 04:59 50.06797 8.62622 1676 ft 135 kts 250°
2026-04-17 05:00 50.06474 8.61265 1460 ft 132 kts 248°
2026-04-17 05:00 50.06149 8.59931 1276 ft 132 kts 249°
2026-04-17 05:00 50.05828 8.58601 1080 ft 131 kts 250°
2026-04-17 05:00 50.05518 8.57265 886 ft 131 kts 250°
2026-04-17 05:01 50.05195 8.55943 720 ft 130 kts 250°
2026-04-17 05:01 50.04891 8.54619 570 ft 130 kts 251°
2026-04-17 05:01 50.04566 8.53310 405 ft 129 kts 249°
2026-04-17 05:01 50.04264 8.52047 352 ft 110 kts 252°
2026-04-17 05:02 50.04062 8.51194 332 ft 58 kts 249°
2026-04-17 05:02 50.03952 8.50740 326 ft 45 kts 249°
2026-04-17 05:02 50.03854 8.50412 321 ft 29 kts 229°
2026-04-17 05:02 50.03730 8.50237 319 ft 14 kts 219°
2026-04-17 05:03 50.03652 8.50183 324 ft 11 kts 169°
2026-04-17 05:03 50.03626 8.50262 326 ft 10 kts 88°
2026-04-17 05:03 50.03656 8.50402 330 ft 17 kts 69°
2026-04-17 05:03 50.03703 8.50597 332 ft 21 kts 69°
2026-04-17 05:04 50.03757 8.50821 334 ft 22 kts 70°
2026-04-17 05:04 50.03811 8.51045 335 ft 22 kts 69°
2026-04-17 05:04 50.03866 8.51276 335 ft 23 kts 70°
2026-04-17 05:04 50.03924 8.51519 337 ft 24 kts 69°
2026-04-17 05:05 50.03984 8.51767 336 ft 25 kts 69°
2026-04-17 05:05 50.04038 8.51995 351 ft 22 kts 70°
2026-04-17 05:05 50.04090 8.52212 354 ft 21 kts 70°
2026-04-17 05:05 50.04141 8.52426 358 ft 21 kts 69°
2026-04-17 05:06 50.04191 8.52634 363 ft 20 kts 70°
2026-04-17 05:06 50.04240 8.52841 364 ft 20 kts 69°
2026-04-17 05:06 50.04291 8.53047 367 ft 21 kts 69°
2026-04-17 05:06 50.04336 8.53243 368 ft 17 kts 70°
2026-04-17 05:07 50.04374 8.53401 377 ft 16 kts 70°
2026-04-17 05:07 50.04401 8.53595 379 ft 22 kts 85°
2026-04-17 05:07 50.04417 8.53842 379 ft 24 kts 83°
2026-04-17 05:07 50.04434 8.54106 379 ft 25 kts 84°
2026-04-17 05:08 50.04451 8.54349 378 ft 19 kts 83°
2026-04-17 05:08 50.04437 8.54558 373 ft 20 kts 110°
2026-04-17 05:08 50.04346 8.54739 371 ft 21 kts 146°
2026-04-17 05:08 50.04205 8.54832 363 ft 22 kts 160°
2026-04-17 05:09 50.04077 8.54905 359 ft 15 kts 160°
2026-04-17 05:09 50.03978 8.54965 364 ft 16 kts 159°
2026-04-17 05:09 50.03876 8.55024 359 ft 12 kts 159°
2026-04-17 05:09 50.03853 8.55134 360 ft 12 kts 71°
2026-04-17 05:10 50.03885 8.55265 363 ft 14 kts 70°
2026-04-17 05:10 50.03921 8.55417 359 ft 16 kts 70°
2026-04-17 05:10 50.03961 8.55583 357 ft 18 kts 69°
2026-04-17 05:10 50.04005 8.55769 362 ft 19 kts 70°
2026-04-17 05:11 50.04045 8.55931 361 ft 11 kts 64°
2026-04-17 05:11 50.04100 8.55968 359 ft 8 kts 355°
2026-04-17 05:11 50.04157 8.55934 361 ft 10 kts 338°
2026-04-17 05:11 50.04225 8.55919 364 ft 9 kts 22°
2026-04-17 05:12 50.04283 8.55961 364 ft 9 kts
2026-04-17 05:12 50.04346 8.55927 367 ft 10 kts 339°
2026-04-17 05:12 50.04412 8.55907 366 ft 10 kts
2026-04-17 05:12 50.04484 8.55937 366 ft 12 kts 17°
2026-04-17 05:13 50.04550 8.55976 363 ft 8 kts 28°
2026-04-17 05:13 50.04605 8.55966 369 ft 9 kts 340°
2026-04-17 05:13 50.04628 8.55953 366 ft 3 kts 339°
2026-04-17 05:13 50.04644 8.55943 367 ft 0 kts 340°